• en Belgique
  • Liste des pays
  • À 7 jours
  • Température de l'eau
  • Carte satellitaire
  • Carte météo
  • Widgets météo
  • user-avatar
    Se connecter

    Météo par heure à Tebessa

    Ce jour, 21 Août, Lundi

    Heure Température Précipitation Vent Pression Humidité
    00:00 +27°C° 0 mm 3 m/s 689 mmHg 45%
    01:00 +26°C° 0 mm 3 m/s 689 mmHg 47%
    02:00 +26°C° 0 mm 2 m/s 688 mmHg 48%
    03:00 +25°C° 0 mm 2 m/s 688 mmHg 49%
    04:00 +25°C° 0 mm 1 m/s 688 mmHg 50%
    05:00 +24°C° 0 mm 1 m/s 688 mmHg 50%
    06:00 +24°C° 0 mm 1 m/s 688 mmHg 50%
    07:00 +24°C° 0 mm 1 m/s 688 mmHg 50%
    08:00 +25°C° 0 mm 1 m/s 688 mmHg 44%
    09:00 +27°C° 0 mm 2 m/s 688 mmHg 38%
    10:00 +28°C° 0 mm 2 m/s 689 mmHg 32%
    11:00 +29°C° 0 mm 3 m/s 688 mmHg 30%
    12:00 +31°C° 0 mm 3 m/s 688 mmHg 27%
    13:00 +33°C° 0 mm 4 m/s 688 mmHg 24%
    14:00 +33°C° 0 mm 5 m/s 688 mmHg 23%
    15:00 +34°C° 0 mm 5 m/s 688 mmHg 23%
    16:00 +34°C° 0 mm 5 m/s 688 mmHg 22%
    17:00 +33°C° 0 mm 6 m/s 687 mmHg 24%
    18:00 +32°C° 0 mm 6 m/s 687 mmHg 26%
    19:00 +29°C° 0 mm 6 m/s 687 mmHg 28%
    20:00 +28°C° 0 mm 5 m/s 687 mmHg 32%
    21:00 +27°C° 0 mm 4 m/s 688 mmHg 36%
    22:00 +26°C° 0 mm 4 m/s 688 mmHg 40%
    23:00 +25°C° 0 mm 3 m/s 688 mmHg 43%

    Demain, 22 Août, Mardi

    Heure Température Précipitation Vent Pression Humidité
    00:00 +25°C° 0 mm 3 m/s 688 mmHg 46%
    01:00 +24°C° 0 mm 2 m/s 688 mmHg 48%
    02:00 +23°C° 0 mm 2 m/s 687 mmHg 51%
    03:00 +23°C° 0 mm 2 m/s 687 mmHg 54%
    04:00 +21°C° 0 mm 2 m/s 687 mmHg 56%
    05:00 +21°C° 0 mm 2 m/s 687 mmHg 57%
    06:00 +22°C° 0 mm 1 m/s 687 mmHg 58%
    07:00 +22°C° 0 mm 1 m/s 688 mmHg 59%
    08:00 +23°C° 0 mm 1 m/s 688 mmHg 51%
    09:00 +25°C° 0 mm 1 m/s 688 mmHg 43%
    10:00 +26°C° 0 mm 1 m/s 689 mmHg 35%
    11:00 +28°C° 0 mm 2 m/s 688 mmHg 31%
    12:00 +29°C° 0 mm 2 m/s 688 mmHg 26%
    13:00 +30°C° 0 mm 2 m/s 688 mmHg 22%
    14:00 +31°C° 0 mm 2 m/s 688 mmHg 21%
    15:00 +33°C° 0 mm 3 m/s 688 mmHg 19%
    16:00 +33°C° 0 mm 3 m/s 687 mmHg 18%
    17:00 +33°C° 0 mm 3 m/s 687 mmHg 19%
    18:00 +31°C° 0 mm 3 m/s 687 mmHg 20%
    19:00 +30°C° 0 mm 3 m/s 687 mmHg 20%
    20:00 +29°C° 0 mm 4 m/s 688 mmHg 25%
    21:00 +28°C° 0 mm 4 m/s 688 mmHg 30%
    22:00 +27°C° 0 mm 4 m/s 688 mmHg 35%
    23:00 +26°C° 0 mm 4 m/s 688 mmHg 43%

    Après-demain, 23 Août, Mercredi

    Heure Température Précipitation Vent Pression Humidité
    00:00 +25°C° 0 mm 4 m/s 688 mmHg 50%
    01:00 +23°C° 0 mm 4 m/s 687 mmHg 58%
    02:00 +24°C° 0 mm 3 m/s 687 mmHg 61%
    03:00 +23°C° 0 mm 2 m/s 687 mmHg 65%
    04:00 +23°C° 0 mm 2 m/s 687 mmHg 68%
    05:00 +23°C° 0 mm 1 m/s 687 mmHg 68%
    06:00 +23°C° 0 mm 1 m/s 687 mmHg 68%
    07:00 +23°C° 0 mm 1 m/s 687 mmHg 68%
    08:00 +24°C° 0 mm 1 m/s 688 mmHg 59%
    09:00 +26°C° 0 mm 1 m/s 688 mmHg 51%
    10:00 +27°C° 0 mm 1 m/s 689 mmHg 42%
    11:00 +28°C° 0 mm 1 m/s 689 mmHg 37%
    12:00 +30°C° 0 mm 1 m/s 689 mmHg 31%
    13:00 +31°C° 0 mm 2 m/s 689 mmHg 25%
    14:00 +31°C° 0 mm 2 m/s 689 mmHg 23%
    15:00 +32°C° 0 mm 2 m/s 688 mmHg 21%
    16:00 +34°C° 0 mm 3 m/s 688 mmHg 19%
    17:00 +33°C° 0 mm 3 m/s 688 mmHg 20%
    18:00 +33°C° 0 mm 3 m/s 688 mmHg 21%
    19:00 +32°C° 0 mm 4 m/s 688 mmHg 22%
    20:00 +30°C° 0 mm 4 m/s 688 mmHg 26%
    21:00 +29°C° 0 mm 4 m/s 688 mmHg 30%
    22:00 +28°C° 0 mm 4 m/s 689 mmHg 34%
    23:00 +27°C° 0 mm 4 m/s 688 mmHg 40%

    24 Août, Jeudi

    Heure Température Précipitation Vent Pression Humidité
    00:00 +26°C° 0 mm 4 m/s 688 mmHg 47%
    01:00 +25°C° 0 mm 4 m/s 688 mmHg 54%
    02:00 +24°C° 0 mm 3 m/s 688 mmHg 56%
    03:00 +24°C° 0 mm 2 m/s 687 mmHg 59%
    04:00 +23°C° 0 mm 2 m/s 687 mmHg 62%
    05:00 +23°C° 0 mm 2 m/s 687 mmHg 61%
    06:00 +23°C° 0 mm 1 m/s 688 mmHg 61%
    07:00 +23°C° 0 mm 1 m/s 688 mmHg 61%
    08:00 +25°C° 0 mm 1 m/s 688 mmHg 53%
    09:00 +26°C° 0 mm 2 m/s 689 mmHg 46%
    10:00 +28°C° 0 mm 2 m/s 689 mmHg 38%
    11:00 +29°C° 0 mm 1 m/s 689 mmHg 34%
    12:00 +30°C° 0 mm 1 m/s 689 mmHg 29%
    13:00 +31°C° 0 mm 1 m/s 689 mmHg 25%
    14:00 +32°C° 0 mm 2 m/s 689 mmHg 23%
    15:00 +34°C° 0 mm 2 m/s 688 mmHg 21%
    16:00 +34°C° 0 mm 2 m/s 688 mmHg 20%
    17:00 +34°C° 0 mm 3 m/s 688 mmHg 21%
    18:00 +33°C° 0 mm 4 m/s 688 mmHg 22%
    19:00 +33°C° 0 mm 4 m/s 688 mmHg 23%
    20:00 +32°C° 0 mm 4 m/s 688 mmHg 29%
    21:00 +29°C° 0 mm 5 m/s 688 mmHg 35%
    22:00 +28°C° 0 mm 5 m/s 688 mmHg 41%
    23:00 +27°C° 0 mm 4 m/s 688 mmHg 46%

    25 Août, Vendredi

    Heure Température Précipitation Vent Pression Humidité
    00:00 +26°C° 0 mm 4 m/s 688 mmHg 52%
    01:00 +25°C° 0 mm 4 m/s 688 mmHg 58%
    02:00 +25°C° 0 mm 3 m/s 687 mmHg 60%
    03:00 +24°C° 0 mm 3 m/s 687 mmHg 63%
    04:00 +24°C° 0 mm 2 m/s 687 mmHg 66%
    05:00 +24°C° 0 mm 2 m/s 687 mmHg 66%
    06:00 +24°C° 0 mm 2 m/s 687 mmHg 66%
    07:00 +24°C° 0 mm 2 m/s 687 mmHg 67%
    08:00 +25°C° 0 mm 2 m/s 688 mmHg 59%
    09:00 +27°C° 0 mm 3 m/s 688 mmHg 50%
    10:00 +29°C° 0 mm 3 m/s 688 mmHg 42%
    11:00 +30°C° 0 mm 3 m/s 688 mmHg 38%
    12:00 +31°C° 0 mm 3 m/s 688 mmHg 33%
    13:00 +32°C° 0 mm 2 m/s 688 mmHg 29%
    14:00 +34°C° 0 mm 2 m/s 688 mmHg 27%
    15:00 +34°C° 0 mm 2 m/s 687 mmHg 25%
    16:00 +35°C° 0 mm 2 m/s 687 mmHg 23%
    17:00 +34°C° 0 mm 3 m/s 687 mmHg 24%
    18:00 +34°C° 0 mm 4 m/s 687 mmHg 25%
    19:00 +33°C° 0 mm 5 m/s 687 mmHg 27%
    20:00 +32°C° 0 mm 5 m/s 687 mmHg 31%
    21:00 +29°C° 0 mm 6 m/s 687 mmHg 35%
    22:00 +28°C° 0 mm 6 m/s 687 mmHg 39%
    23:00 +27°C° 0 mm 5 m/s 687 mmHg 42%

    26 Août, Samedi

    Heure Température Précipitation Vent Pression Humidité
    00:00 +27°C° 0 mm 4 m/s 687 mmHg 44%
    01:00 +26°C° 0 mm 3 m/s 687 mmHg 46%
    02:00 +26°C° 0 mm 3 m/s 686 mmHg 48%
    03:00 +25°C° 0 mm 2 m/s 686 mmHg 49%
    04:00 +25°C° 0 mm 2 m/s 686 mmHg 51%
    05:00 +25°C° 0 mm 2 m/s 686 mmHg 51%
    06:00 +25°C° 0 mm 2 m/s 686 mmHg 50%
    07:00 +25°C° 0 mm 2 m/s 686 mmHg 50%
    08:00 +26°C° 0 mm 2 m/s 687 mmHg 45%
    09:00 +28°C° 0 mm 2 m/s 687 mmHg 40%
    10:00 +30°C° 0 mm 2 m/s 687 mmHg 34%
    11:00 +31°C° 0 mm 2 m/s 687 mmHg 32%
    12:00 +32°C° 0 mm 2 m/s 687 mmHg 29%
    13:00 +34°C° 0 mm 3 m/s 687 mmHg 26%
    14:00 +35°C° 0 mm 3 m/s 687 mmHg 25%
    15:00 +35°C° 0 mm 3 m/s 687 mmHg 24%
    16:00 +36°C° 0 mm 3 m/s 686 mmHg 23%
    17:00 +35°C° 0 mm 3 m/s 686 mmHg 24%
    18:00 +34°C° 0 mm 4 m/s 686 mmHg 25%
    19:00 +34°C° 0 mm 4 m/s 686 mmHg 27%
    20:00 +33°C° 0 mm 4 m/s 686 mmHg 29%
    21:00 +32°C° 0 mm 4 m/s 687 mmHg 32%
    22:00 +30°C° 0 mm 4 m/s 687 mmHg 34%
    23:00 +29°C° 0 mm 4 m/s 687 mmHg 37%
    Voir plus